Omaha Offutt, NE

6:13 AM CDT on September 26, 2017 (GMT -0500)
Offutt Air Force Base

Weather History for KOFF - February, 2013

Change the Weather History Date:

Monday, February 25, 2013

  Actual Average Record
Temperature  
Mean Temperature 30 °F -  
Max Temperature 34 °F 37 °F 64 °F (1998)
Min Temperature 27 °F 21 °F -2 °F (2003)
Degree Days  
Heating Degree Days 34    
Moisture  
Dew Point 28 °F    
Average Humidity 91    
Maximum Humidity 100    
Minimum Humidity 74    
Precipitation  
Precipitation 0.00 in - - ()
Snow  
Snow 0.00 in - - ()
Snow Depth 1.00 in    
Sea Level Pressure  
Sea Level Pressure 30.03 in    
Wind  
Wind Speed 8 mph (North)    
Max Wind Speed 14 mph    
Max Gust Speed 20 mph    
Visibility 8 miles    
Events      
Averages and records for this station are not official NWS values.
T = Trace of Precipitation, MM = Missing Value Source: NWS Daily Summary

Daily Weather History Graph

Daily Weather History Graph

Search for Another Location

Airport or City:

Trip Planner

Search our weather history database for the weather conditions in past years. The results will help you decide how hot, cold, wet, or windy it might be!

Date:

Astronomy

Feb. 25, 2013 Rise Set
Actual Time 7:03 AM CST 6:10 PM CST
Civil Twilight 6:35 AM CST 6:38 PM CST
Nautical Twilight 6:03 AM CST 7:10 PM CST
Astronomical Twilight 5:32 AM CST 7:41 PM CST
Moon 6:25 PM CST (2/25) 6:34 AM CST (2/25)
Length of Visible Light 12h 02m
Length of Day
11h 06m
Full, 100% of the Moon is Illuminated
Feb 25
Full
Feb 25
Full
Mar 4
Last Quarter
Mar 11
New
Mar 19
First Quarter

Hourly Weather History & Observations

Time (CST) Temp. Windchill Dew Point Humidity Pressure Visibility Wind Dir Wind Speed Gust Speed Precip Events Conditions
12:55 AM 30.9 °F 22.8 °F 27.5 °F 87% 30.08 in 7.0 mi NNW 9.2 mph - N/A   Overcast
1:55 AM 30.4 °F 24.5 °F 27.3 °F 88% 30.08 in 7.0 mi Variable 5.8 mph - N/A   Overcast
2:55 AM 29.8 °F 24.9 °F 26.2 °F 86% 30.08 in 7.0 mi Variable 4.6 mph - N/A   Overcast
3:55 AM 29.5 °F 22.5 °F 26.4 °F 88% 30.07 in 6.0 mi NNW 6.9 mph - N/A   Overcast
4:55 AM 29.1 °F 19.4 °F 26.6 °F 90% 30.08 in 6.0 mi NW 11.5 mph - N/A   Overcast
5:55 AM 29.3 °F 22.3 °F 27.1 °F 92% 30.08 in 6.0 mi North 6.9 mph - N/A   Overcast
6:55 AM 27.9 °F 24.0 °F 26.8 °F 96% 30.08 in 10.0 mi NNE 3.5 mph - N/A   Overcast
7:55 AM 27.9 °F 22.6 °F 26.6 °F 95% 30.10 in 10.0 mi North 4.6 mph - N/A   Overcast
8:05 AM 28.4 °F 21.2 °F 26.6 °F 93% 30.06 in 10.0 mi NNW 6.9 mph - N/A   Overcast
8:36 AM 28.4 °F 22.2 °F 26.6 °F 93% 30.11 in 10.0 mi North 5.8 mph - N/A   Mostly Cloudy
8:55 AM 28.9 °F 22.8 °F 26.8 °F 92% 30.12 in 10.0 mi North 5.8 mph - N/A   Mostly Cloudy
9:55 AM 29.7 °F 22.8 °F 27.3 °F 91% 30.10 in 10.0 mi North 6.9 mph - N/A   Partly Cloudy
10:06 AM 30.2 °F 22.6 °F 26.6 °F 86% 30.10 in 4.0 mi North 8.1 mph - N/A   Partly Cloudy
10:15 AM 30.2 °F 22.6 °F 26.6 °F 86% 30.10 in 3.0 mi North 8.1 mph - N/A   Scattered Clouds
10:55 AM 30.9 °F 23.5 °F 27.5 °F 87% 30.10 in 4.0 mi North 8.1 mph - N/A   Partly Cloudy
11:17 AM 32.0 °F 24.8 °F 28.4 °F 87% 30.09 in 4.0 mi NNW 8.1 mph - N/A   Mostly Cloudy
11:36 AM 32.0 °F 24.8 °F 28.4 °F 87% 30.08 in 4.0 mi North 8.1 mph - N/A   Scattered Clouds
11:46 AM 32.0 °F 26.4 °F 28.4 °F 87% 30.08 in 4.0 mi North 5.8 mph - N/A   Mostly Cloudy
11:55 AM 31.8 °F 25.4 °F 28.0 °F 86% 30.08 in 4.0 mi North 6.9 mph - N/A   Mostly Cloudy
12:55 PM 32.9 °F 25.9 °F 28.8 °F 85% 30.04 in 4.0 mi NNE 8.1 mph - N/A   Haze
1:55 PM 34.2 °F 25.7 °F 27.3 °F 76% 30.03 in 8.0 mi NE 11.5 mph - N/A   Haze
2:55 PM 34.5 °F 26.7 °F 27.1 °F 74% 30.01 in 10.0 mi NNE 10.4 mph - N/A   Partly Cloudy
3:55 PM 34.3 °F 27.7 °F 28.9 °F 81% 30.01 in 10.0 mi NE 8.1 mph - N/A   Overcast
4:55 PM 34.0 °F 27.2 °F 29.7 °F 84% 30.01 in 10.0 mi NE 8.1 mph - N/A   Overcast
5:55 PM 33.3 °F 27.1 °F 29.7 °F 87% 29.99 in 10.0 mi NNE 6.9 mph - N/A   Mostly Cloudy
6:55 PM 31.8 °F 25.4 °F 28.9 °F 89% 29.98 in 10.0 mi North 6.9 mph - N/A   Scattered Clouds
7:17 PM 32.0 °F 25.6 °F 28.4 °F 87% 29.99 in 10.0 mi North 6.9 mph - N/A   Mostly Cloudy
7:55 PM 31.1 °F 21.4 °F 29.3 °F 93% 29.97 in 10.0 mi NNE 12.7 mph - N/A   Overcast
8:00 PM 30.2 °F 20.2 °F 30.2 °F 100% 29.97 in 10.0 mi NNE 12.7 mph 19.6 mph N/A   Overcast
8:16 PM 30.2 °F 19.8 °F 30.2 °F 100% 29.96 in 10.0 mi NNE 13.8 mph - N/A   Overcast
8:28 PM 30.2 °F 21.3 °F 30.2 °F 100% 29.96 in 10.0 mi NNE 10.4 mph - N/A   Overcast
8:55 PM 29.7 °F 20.1 °F 29.5 °F 99% 29.94 in 10.0 mi North 11.5 mph - N/A   Overcast
9:01 PM 30.2 °F 20.8 °F 30.2 °F 100% 29.94 in 10.0 mi NNE 11.5 mph - N/A   Overcast
9:55 PM 29.1 °F 18.9 °F 28.8 °F 99% 29.95 in 10.0 mi NNE 12.7 mph - N/A   Overcast
10:55 PM 28.9 °F 19.8 °F 28.8 °F 99% 29.96 in 10.0 mi NNE 10.4 mph - N/A   Overcast
11:51 PM 28.4 °F 19.1 °F 28.4 °F 100% 29.95 in 10.0 mi North 10.4 mph - N/A   Overcast
11:55 PM 28.8 °F 21.7 °F 28.6 °F 99% 29.94 in 10.0 mi North 6.9 mph - N/A   Overcast
11:59 PM 28.4 °F 20.4 °F 28.4 °F 100% 29.95 in 10.0 mi North 8.1 mph - N/A   Overcast